Location: Little Chesterford
(52.0500°N, 0.1833°E)
Time: 19:35:57
(UTC+00:00)

CZ-4B R/B - Pass Details

Date: 26 September 2023
Orbit: 808 x 881 km, 99.0° (Epoch: 08 December)

Event Time Altitude Azimuth Distance (km) Brightness Sun altitude
Rises 18:35:55 0° 147° (SSE) 3,319 5.9 -8.0°
Reaches altitude 10° 18:38:16 10° 144° (SE) 2,390 5.1 -8.4°
Maximum altitude 18:43:24 56° 67° (ENE) 966 3.3 -9.2°
Drops below altitude 10° 18:48:36 10° 351° (N) 2,419 5.9 -9.9°
Sets 18:51:00 0° 347° (NNW) 3,363 6.7 -10.3°
